カタログに戻る

STARLINK-37227

運用中通信VLEO
NORAD 68558·PAYLOAD·🇺🇸 United States

打ち上げ Apr 2, 2026 から Cape Canaveral Space Force Station

Loading…

次のパス (今後24時間)

TLE

最新Source: CelesTrak SupGP

元期: Sep 15, 2026, 03:18 UTC

1 68558C 26070S   26258.13798611 -.00069238  00000+0 -20457-2 0  2583
2 68558  53.1576 198.6531 0001338  84.1138   0.6989 15.34423775    18

AllMySatでSTARLINK-37227をリアルタイム追跡

Download on the App Store